timestamp,wind_dir_avg,wind_spd_max_dir,wind_spd_avg,wind_spd_gust,battery_voltage,lat,long
2018-12-08 00:00:00+00:00,264.0,265.0,6.01,6.55,,47.59359,-54.27349
2018-12-08 00:10:00+00:00,268.0,272.0,6.75,7.31,,47.59359,-54.27349
2018-12-08 00:20:00+00:00,275.0,277.0,6.62,7.52,,47.59359,-54.27349
2018-12-08 00:30:00+00:00,273.0,275.0,6.53,7.13,,47.59359,-54.27349
2018-12-08 00:40:00+00:00,267.0,271.0,6.42,7.49,,47.59359,-54.27349
2018-12-08 00:50:00+00:00,267.0,273.0,6.15,6.83,,47.59359,-54.27349
2018-12-08 01:00:00+00:00,271.0,265.0,5.36,5.81,,47.59359,-54.27349
2018-12-08 01:10:00+00:00,269.0,266.0,5.68,6.56,,47.59359,-54.27349
2018-12-08 01:20:00+00:00,272.0,271.0,5.73,6.35,,47.59359,-54.27349
2018-12-08 01:30:00+00:00,270.0,271.0,5.91,6.28,,47.59359,-54.27349
2018-12-08 01:40:00+00:00,266.0,269.0,5.4,6.09,,47.59359,-54.27349
2018-12-08 01:50:00+00:00,268.0,269.0,6.45,7.17,,47.59359,-54.27349
2018-12-08 02:00:00+00:00,265.0,269.0,6.36,6.81,,47.59359,-54.27349
2018-12-08 02:10:00+00:00,257.0,256.0,6.07,6.95,,47.59359,-54.27349
2018-12-08 02:20:00+00:00,264.0,265.0,6.2,6.97,,47.59359,-54.27349
2018-12-08 02:30:00+00:00,257.0,265.0,5.88,6.55,,47.59359,-54.27349
2018-12-08 02:40:00+00:00,258.0,262.0,5.84,7.02,,47.59359,-54.27349
2018-12-08 02:50:00+00:00,266.0,266.0,6.26,6.95,,47.59359,-54.27349
2018-12-08 03:00:00+00:00,271.0,271.0,5.91,7.0,,47.59359,-54.27349
2018-12-08 03:10:00+00:00,266.0,266.0,5.75,6.45,,47.59359,-54.27349
2018-12-08 03:20:00+00:00,274.0,277.0,6.01,6.46,,47.59359,-54.27349
2018-12-08 03:30:00+00:00,263.0,261.0,4.84,5.48,,47.59359,-54.27349
2018-12-08 03:40:00+00:00,270.0,268.0,4.71,5.37,,47.59359,-54.27349
2018-12-08 03:50:00+00:00,275.0,271.0,5.02,5.68,,47.59359,-54.27349
2018-12-08 04:00:00+00:00,276.0,277.0,4.72,5.18,,47.59359,-54.27349
2018-12-08 04:10:00+00:00,271.0,269.0,5.58,6.13,,47.59359,-54.27349
2018-12-08 04:20:00+00:00,270.0,277.0,5.88,6.48,,47.59359,-54.27349
2018-12-08 04:30:00+00:00,271.0,276.0,4.75,5.47,,47.59359,-54.27349
2018-12-08 04:40:00+00:00,290.0,294.0,4.07,4.71,,47.59359,-54.27349
2018-12-08 04:50:00+00:00,299.0,298.0,4.19,4.95,,47.59359,-54.27349
2018-12-08 05:00:00+00:00,323.0,324.0,4.26,5.07,,47.59359,-54.27349
2018-12-08 05:10:00+00:00,327.0,333.0,3.91,4.74,,47.59359,-54.27349
2018-12-08 05:20:00+00:00,332.0,333.0,4.03,4.63,,47.59359,-54.27349
2018-12-08 05:30:00+00:00,319.0,312.0,3.17,3.8,,47.59359,-54.27349
2018-12-08 05:40:00+00:00,313.0,307.0,1.8,2.1,,47.59359,-54.27349
2018-12-08 05:50:00+00:00,259.0,265.0,0.85,1.23,,47.59359,-54.27349
2018-12-08 06:00:00+00:00,309.0,313.0,2.05,2.59,,47.59359,-54.27349
2018-12-08 06:10:00+00:00,330.0,330.0,0.82,1.44,,47.59359,-54.27349
2018-12-08 06:20:00+00:00,319.0,305.0,0.81,1.3,,47.59359,-54.27349
2018-12-08 06:30:00+00:00,267.0,272.0,1.98,2.44,,47.59359,-54.27349
2018-12-08 06:40:00+00:00,283.0,287.0,3.73,4.19,,47.59359,-54.27349
2018-12-08 06:50:00+00:00,273.0,262.0,3.06,4.44,,47.59359,-54.27349
2018-12-08 07:00:00+00:00,15.0,12.0,4.72,5.3,,47.59359,-54.27349
2018-12-08 07:10:00+00:00,1.0,1.0,3.39,3.92,,47.59359,-54.27349
2018-12-08 07:20:00+00:00,353.0,356.0,3.89,4.7,,47.59359,-54.27349
2018-12-08 07:30:00+00:00,6.0,6.0,4.97,5.74,,47.59359,-54.27349
2018-12-08 07:40:00+00:00,16.0,15.0,4.87,5.65,,47.59359,-54.27349
2018-12-08 07:50:00+00:00,9.0,13.0,5.13,6.08,,47.59359,-54.27349
2018-12-08 08:00:00+00:00,18.0,25.0,4.64,5.38,,47.59359,-54.27349
2018-12-08 08:10:00+00:00,18.0,16.0,4.0,4.75,,47.59359,-54.27349
2018-12-08 08:20:00+00:00,11.0,12.0,4.06,4.44,,47.59359,-54.27349
2018-12-08 08:30:00+00:00,6.0,4.0,4.52,5.51,,47.59359,-54.27349
2018-12-08 08:40:00+00:00,12.0,13.0,3.83,4.26,,47.59359,-54.27349
2018-12-08 08:50:00+00:00,34.0,42.0,2.24,2.69,,47.59359,-54.27349
2018-12-08 09:00:00+00:00,48.0,47.0,2.77,3.25,,47.59359,-54.27349
2018-12-08 09:10:00+00:00,41.0,33.0,2.16,2.71,,47.59359,-54.27349
2018-12-08 09:20:00+00:00,72.0,71.0,2.08,2.53,,47.59359,-54.27349
2018-12-08 09:30:00+00:00,43.0,45.0,2.21,2.77,,47.59359,-54.27349
2018-12-08 09:40:00+00:00,42.0,42.0,3.07,3.66,,47.59359,-54.27349
2018-12-08 09:50:00+00:00,54.0,36.0,1.81,2.35,,47.59359,-54.27349
2018-12-08 10:00:00+00:00,49.0,56.0,2.59,3.36,,47.59359,-54.27349
2018-12-08 10:10:00+00:00,37.0,38.0,2.16,3.01,,47.59359,-54.27349
2018-12-08 10:20:00+00:00,21.0,17.0,3.03,3.73,,47.59359,-54.27349
2018-12-08 10:30:00+00:00,71.0,63.0,2.83,3.52,,47.59359,-54.27349
2018-12-08 10:40:00+00:00,69.0,70.0,3.38,4.22,,47.59359,-54.27349
2018-12-08 10:50:00+00:00,61.0,63.0,3.55,4.32,,47.59359,-54.27349
2018-12-08 11:00:00+00:00,57.0,55.0,3.02,3.57,,47.59359,-54.27349
2018-12-08 11:10:00+00:00,81.0,78.0,3.32,3.79,,47.59359,-54.27349
2018-12-08 11:20:00+00:00,89.0,79.0,2.85,3.82,,47.59359,-54.27349
2018-12-08 11:30:00+00:00,92.0,94.0,2.95,4.19,,47.59359,-54.27349
2018-12-08 11:40:00+00:00,94.0,95.0,3.29,4.5,,47.59359,-54.27349
2018-12-08 11:50:00+00:00,87.0,85.0,3.5,4.46,,47.59359,-54.27349
2018-12-08 12:00:00+00:00,87.0,85.0,4.69,5.69,,47.59359,-54.27349
2018-12-08 12:10:00+00:00,79.0,74.0,4.35,5.32,,47.59359,-54.27349
2018-12-08 12:20:00+00:00,83.0,76.0,3.69,4.92,,47.59359,-54.27349
2018-12-08 12:30:00+00:00,78.0,78.0,5.16,6.3,,47.59359,-54.27349
2018-12-08 12:40:00+00:00,99.0,96.0,3.17,4.63,,47.59359,-54.27349
2018-12-08 12:50:00+00:00,86.0,74.0,3.86,5.21,,47.59359,-54.27349
2018-12-08 13:00:00+00:00,87.0,82.0,3.42,4.55,,47.59359,-54.27349
2018-12-08 13:10:00+00:00,86.0,88.0,4.75,5.73,,47.59359,-54.27349
2018-12-08 13:20:00+00:00,85.0,87.0,4.44,5.53,,47.59359,-54.27349
2018-12-08 13:30:00+00:00,78.0,81.0,5.44,6.31,,47.59359,-54.27349
2018-12-08 13:40:00+00:00,70.0,61.0,5.33,6.5,,47.59359,-54.27349
2018-12-08 13:50:00+00:00,74.0,68.0,6.24,6.72,,47.59359,-54.27349
2018-12-08 14:00:00+00:00,81.0,86.0,5.92,6.53,,47.59359,-54.27349
2018-12-08 14:10:00+00:00,74.0,66.0,5.49,6.51,,47.59359,-54.27349
2018-12-08 14:20:00+00:00,88.0,86.0,4.13,6.08,,47.59359,-54.27349
2018-12-08 14:30:00+00:00,107.0,103.0,1.97,2.84,,47.59359,-54.27349
2018-12-08 14:40:00+00:00,90.0,74.0,2.23,3.07,,47.59359,-54.27349
2018-12-08 14:50:00+00:00,134.0,122.0,2.48,4.83,,47.59359,-54.27349
2018-12-08 15:00:00+00:00,107.0,110.0,2.19,4.15,,47.59359,-54.27349
2018-12-08 15:10:00+00:00,136.0,131.0,3.81,4.43,,47.59359,-54.27349
2018-12-08 15:20:00+00:00,130.0,138.0,3.94,5.23,,47.59359,-54.27349
2018-12-08 15:30:00+00:00,140.0,141.0,4.36,5.25,,47.59359,-54.27349
2018-12-08 15:40:00+00:00,141.0,133.0,4.63,5.81,,47.59359,-54.27349
2018-12-08 15:50:00+00:00,143.0,136.0,5.5,6.44,,47.59359,-54.27349
2018-12-08 16:00:00+00:00,140.0,146.0,4.52,5.12,,47.59359,-54.27349
2018-12-08 16:10:00+00:00,143.0,144.0,5.43,6.47,,47.59359,-54.27349
2018-12-08 16:20:00+00:00,140.0,138.0,4.46,5.72,,47.59359,-54.27349
2018-12-08 16:30:00+00:00,130.0,135.0,4.71,6.47,,47.59359,-54.27349
2018-12-08 16:40:00+00:00,137.0,137.0,5.38,6.5,,47.59359,-54.27349
2018-12-08 16:50:00+00:00,111.0,122.0,3.34,5.03,,47.59359,-54.27349
2018-12-08 17:00:00+00:00,98.0,126.0,3.4,5.18,,47.59359,-54.27349
2018-12-08 17:10:00+00:00,114.0,99.0,3.48,5.88,,47.59359,-54.27349
2018-12-08 17:20:00+00:00,96.0,89.0,4.57,6.45,,47.59359,-54.27349
2018-12-08 17:30:00+00:00,113.0,114.0,3.63,5.84,,47.59359,-54.27349
2018-12-08 17:40:00+00:00,104.0,119.0,4.57,7.9,,47.59359,-54.27349
2018-12-08 17:50:00+00:00,110.0,94.0,4.42,6.67,,47.59359,-54.27349
2018-12-08 18:00:00+00:00,114.0,109.0,5.72,8.46,,47.59359,-54.27349
2018-12-08 18:10:00+00:00,123.0,142.0,5.25,8.24,,47.59359,-54.27349
2018-12-08 18:20:00+00:00,111.0,100.0,3.9,6.19,,47.59359,-54.27349
2018-12-08 18:30:00+00:00,97.0,102.0,4.6,6.75,,47.59359,-54.27349
2018-12-08 18:40:00+00:00,92.0,87.0,4.82,7.66,,47.59359,-54.27349
2018-12-08 18:50:00+00:00,94.0,105.0,4.77,6.47,,47.59359,-54.27349
2018-12-08 19:00:00+00:00,89.0,104.0,4.83,6.41,,47.59359,-54.27349
2018-12-08 19:10:00+00:00,90.0,93.0,4.31,6.09,,47.59359,-54.27349
2018-12-08 19:20:00+00:00,83.0,89.0,5.62,7.11,,47.59359,-54.27349
2018-12-08 19:30:00+00:00,95.0,87.0,4.85,6.31,,47.59359,-54.27349
2018-12-08 19:40:00+00:00,90.0,90.0,4.11,6.25,,47.59359,-54.27349
2018-12-08 19:50:00+00:00,87.0,72.0,4.92,6.33,,47.59359,-54.27349
2018-12-08 20:00:00+00:00,82.0,72.0,5.33,6.97,,47.59359,-54.27349
2018-12-08 20:10:00+00:00,95.0,93.0,5.39,7.66,,47.59359,-54.27349
2018-12-08 20:20:00+00:00,90.0,84.0,4.3,5.96,,47.59359,-54.27349
2018-12-08 20:30:00+00:00,93.0,87.0,4.0,5.77,,47.59359,-54.27349
2018-12-08 20:40:00+00:00,85.0,80.0,5.3,7.57,,47.59359,-54.27349
2018-12-08 20:50:00+00:00,85.0,84.0,6.63,8.13,,47.59359,-54.27349
2018-12-08 21:00:00+00:00,84.0,80.0,7.33,8.15,,47.59359,-54.27349
2018-12-08 21:10:00+00:00,85.0,85.0,6.07,6.8,,47.59359,-54.27349
2018-12-08 21:20:00+00:00,80.0,78.0,7.29,8.13,,47.59359,-54.27349
2018-12-08 21:30:00+00:00,74.0,73.0,7.58,8.68,,47.59359,-54.27349
2018-12-08 21:40:00+00:00,74.0,70.0,8.18,9.4,,47.59359,-54.27349
2018-12-08 21:50:00+00:00,77.0,74.0,7.91,9.05,,47.59359,-54.27349
2018-12-08 22:00:00+00:00,71.0,75.0,7.76,8.68,,47.59359,-54.27349
2018-12-08 22:10:00+00:00,75.0,75.0,8.75,10.12,,47.59359,-54.27349
2018-12-08 22:20:00+00:00,75.0,82.0,8.08,8.92,,47.59359,-54.27349
2018-12-08 22:30:00+00:00,61.0,54.0,9.19,10.66,,47.59359,-54.27349
2018-12-08 22:40:00+00:00,66.0,74.0,10.32,15.18,,47.59359,-54.27349
2018-12-08 22:50:00+00:00,67.0,71.0,11.94,15.33,,47.59359,-54.27349
2018-12-08 23:00:00+00:00,75.0,77.0,14.34,15.93,,47.59359,-54.27349
2018-12-08 23:10:00+00:00,67.0,74.0,11.6,15.23,,47.59359,-54.27349
2018-12-08 23:20:00+00:00,53.0,55.0,10.92,13.35,,47.59359,-54.27349
2018-12-08 23:30:00+00:00,56.0,61.0,10.39,12.32,,47.59359,-54.27349
2018-12-08 23:40:00+00:00,53.0,55.0,9.33,10.56,,47.59359,-54.27349
2018-12-08 23:50:00+00:00,51.0,51.0,9.51,11.5,,47.59359,-54.27349
